Weather in Staryy Tor'yal

Russia / Mari El Republic     56°57′40″N   48°47′04″E
temp.,
°C
wind,
m/s
gust,
m/s
humid.,
%
clouds,
%
prec.,
mm/h
press.,
hPa
HPBL,
m
25 february, thu
thu2500:00−24sw229698 0.0 103420
03:00−25ssw349685 0.0 103343
06:00−22s4795100 0.0 1030183
09:00−20s51092100 0.0 1027265
12:00−17sse71191100 0.1 1024399
15:00−16sse71294100 0.6 1021479
18:00−17sse61295100 0.6 1019547
21:00−17sse6119296 0.8 1019429
26 february, fri
fri2600:00−17sse5109396 0.1 1017402
03:00−17sse599598 0.4 1018413
06:00−18sse599496 0.2 1016332
09:00−17sse5109392 0.3 1015351
12:00−14sse61091100 0.1 1013433
15:00−13se71391100 0.1 1010465
18:00−12se91593100 0.7 1005488
21:00−10sse91794100 3.7 1000561
27 february, sat
sat2700:00−10se71394100 4.4 996467
03:00−9se6995100 6.4 995256
06:00−8ese4696100 1.4 993159
09:00−8e5795100 2.6 993170
12:00−7ene5895100 0.7 994307
15:00−8nne6994100 1.5 996435
18:00−12nne51092100 0.2 1001482
21:00−13n4995100 0.3 1003292
28 february, sun
sun2800:00−17n479791 0.0 1004121
03:00−19n349968 0.1 100655
06:00−20n349972 0.0 100871
09:00−19n479571 0.0 1009243
12:00−16n479172 0.0 1010431
15:00−15n589086 0.0 1012607
18:00−18n4697100 0.0 1014107
21:00−19n369899 0.1 101787
1 march, mon
mon100:00−21n349945 0.0 101850
03:00−22nnw349922 0.0 102058
06:00−22nnw34990 0.0 102243
09:00−19nnw35960 0.0 1023146
12:00−14wnw248944 0.0 1023280
15:00−12w359258 0.0 1022320
18:00−13sw489692 0.0 1021165
21:00−10sw5109596 0.3 1019291